TimeEST,TemperatureF,Dew PointF,Humidity,Sea Level PressureIn,VisibilityMPH,Wind Direction,Wind SpeedMPH,Gust SpeedMPH,PrecipitationIn,Events,Conditions,WindDirDegrees,DateUTC
12:15 AM,35.6,32.0,87,30.39,10.0,Calm,Calm,-,N/A,,Clear,0,2013-01-09 05:15:00
12:55 AM,32.0,30.2,93,30.38,5.0,Calm,Calm,-,N/A,,Clear,0,2013-01-09 05:55:00
1:15 AM,33.8,32.0,93,30.38,8.0,Calm,Calm,-,N/A,,Clear,0,2013-01-09 06:15:00
1:35 AM,33.8,32.0,93,30.38,8.0,East,5.8,-,N/A,,Clear,80,2013-01-09 06:35:00
1:55 AM,32.0,32.0,100,30.38,5.0,Calm,Calm,-,N/A,,Clear,0,2013-01-09 06:55:00
2:15 AM,35.6,32.0,87,30.37,9.0,Calm,Calm,-,N/A,,Clear,0,2013-01-09 07:15:00
2:35 AM,35.6,32.0,87,30.37,10.0,Calm,Calm,-,N/A,,Clear,0,2013-01-09 07:35:00
2:55 AM,32.0,32.0,100,30.36,7.0,Calm,Calm,-,N/A,,Clear,0,2013-01-09 07:55:00
3:15 AM,32.0,30.2,93,30.36,6.0,Calm,Calm,-,N/A,,Clear,0,2013-01-09 08:15:00
3:35 AM,32.0,32.0,100,30.37,7.0,Calm,Calm,-,N/A,,Clear,0,2013-01-09 08:35:00
3:55 AM,33.8,32.0,93,30.36,8.0,Calm,Calm,-,N/A,,Clear,0,2013-01-09 08:55:00
4:15 AM,32.0,30.2,93,30.35,7.0,Calm,Calm,-,N/A,,Clear,0,2013-01-09 09:15:00
4:35 AM,33.8,32.0,93,30.36,7.0,Calm,Calm,-,N/A,,Clear,0,2013-01-09 09:35:00
4:55 AM,32.0,32.0,100,30.36,5.0,Calm,Calm,-,N/A,,Clear,0,2013-01-09 09:55:00
5:15 AM,33.8,32.0,93,30.36,7.0,SW,3.5,-,N/A,,Clear,220,2013-01-09 10:15:00
5:35 AM,35.6,32.0,87,30.35,8.0,Calm,Calm,-,N/A,,Clear,0,2013-01-09 10:35:00
5:55 AM,32.0,32.0,100,30.35,5.0,Calm,Calm,-,N/A,,Clear,0,2013-01-09 10:55:00
6:15 AM,33.8,32.0,93,30.36,7.0,Calm,Calm,-,N/A,,Clear,0,2013-01-09 11:15:00
6:35 AM,32.0,30.2,93,30.36,5.0,Calm,Calm,-,N/A,,Clear,0,2013-01-09 11:35:00
6:55 AM,32.0,32.0,100,30.36,3.0,Calm,Calm,-,N/A,,Clear,0,2013-01-09 11:55:00
7:15 AM,32.0,32.0,100,30.36,5.0,Calm,Calm,-,N/A,,Clear,0,2013-01-09 12:15:00
7:35 AM,32.0,32.0,100,30.36,2.5,Calm,Calm,-,N/A,,Clear,0,2013-01-09 12:35:00
8:15 AM,32.0,32.0,100,30.36,2.0,Calm,Calm,-,N/A,,Clear,0,2013-01-09 13:15:00
8:35 AM,32.0,32.0,100,30.37,3.0,South,3.5,-,N/A,,Clear,180,2013-01-09 13:35:00
8:55 AM,35.6,33.8,93,30.37,4.0,Calm,Calm,-,N/A,,Clear,0,2013-01-09 13:55:00
9:15 AM,35.6,33.8,93,30.37,4.0,Calm,Calm,-,N/A,,Clear,0,2013-01-09 14:15:00
9:35 AM,37.4,33.8,87,30.35,5.0,Calm,Calm,-,N/A,,Clear,0,2013-01-09 14:35:00
9:55 AM,37.4,33.8,87,30.33,5.0,Calm,Calm,-,N/A,,Clear,0,2013-01-09 14:55:00
10:15 AM,39.2,33.8,81,30.35,6.0,South,4.6,-,N/A,,Haze,190,2013-01-09 15:15:00
10:35 AM,42.8,35.6,76,30.35,8.0,Calm,Calm,-,N/A,,Clear,0,2013-01-09 15:35:00
10:55 AM,44.6,35.6,71,30.34,9.0,WSW,3.5,-,N/A,,Clear,240,2013-01-09 15:55:00
11:15 AM,46.4,35.6,66,30.33,10.0,WSW,5.8,-,N/A,,Clear,240,2013-01-09 16:15:00
11:35 AM,46.4,35.6,66,30.31,10.0,SSW,6.9,-,N/A,,Partly Cloudy,210,2013-01-09 16:35:00
11:55 AM,46.4,35.6,66,30.30,10.0,SSW,4.6,-,N/A,,Mostly Cloudy,210,2013-01-09 16:55:00
12:15 PM,44.6,35.6,71,30.30,10.0,WSW,5.8,-,N/A,,Mostly Cloudy,240,2013-01-09 17:15:00
12:55 PM,44.6,35.6,71,30.30,9.0,West,4.6,-,N/A,,Overcast,260,2013-01-09 17:55:00
1:15 PM,44.6,35.6,71,30.30,10.0,West,5.8,-,N/A,,Overcast,270,2013-01-09 18:15:00
1:35 PM,44.6,35.6,71,30.27,10.0,SW,3.5,-,N/A,,Scattered Clouds,220,2013-01-09 18:35:00
1:55 PM,44.6,37.4,76,30.26,10.0,SSW,4.6,-,N/A,,Partly Cloudy,200,2013-01-09 18:55:00
2:15 PM,44.6,37.4,76,30.24,9.0,SSW,5.8,-,N/A,,Clear,210,2013-01-09 19:15:00
2:35 PM,44.6,37.4,76,30.23,10.0,South,5.8,-,N/A,,Scattered Clouds,180,2013-01-09 19:35:00
2:55 PM,44.6,37.4,76,30.21,8.0,South,5.8,-,N/A,,Partly Cloudy,190,2013-01-09 19:55:00
3:15 PM,44.6,37.4,76,30.20,10.0,SSW,4.6,-,N/A,,Clear,210,2013-01-09 20:15:00
3:35 PM,44.6,37.4,76,30.20,10.0,SSW,4.6,-,N/A,,Clear,200,2013-01-09 20:35:00
3:55 PM,44.6,37.4,76,30.20,10.0,SSW,4.6,-,N/A,,Partly Cloudy,210,2013-01-09 20:55:00
4:15 PM,44.6,37.4,76,30.20,10.0,WSW,6.9,-,N/A,,Mostly Cloudy,240,2013-01-09 21:15:00
4:35 PM,44.6,37.4,76,30.20,10.0,WSW,8.1,-,N/A,,Overcast,240,2013-01-09 21:35:00
4:55 PM,44.6,37.4,76,30.21,10.0,West,9.2,-,N/A,,Overcast,260,2013-01-09 21:55:00
5:15 PM,44.6,37.4,76,30.23,10.0,West,6.9,-,N/A,,Overcast,270,2013-01-09 22:15:00
5:35 PM,44.6,37.4,76,30.23,10.0,West,10.4,-,N/A,,Overcast,280,2013-01-09 22:35:00
5:55 PM,44.6,37.4,76,30.24,10.0,West,6.9,-,N/A,,Overcast,280,2013-01-09 22:55:00
6:15 PM,44.6,37.4,76,30.23,10.0,WSW,5.8,-,N/A,,Scattered Clouds,250,2013-01-09 23:15:00
6:35 PM,44.6,37.4,76,30.25,10.0,West,6.9,-,N/A,,Partly Cloudy,270,2013-01-09 23:35:00
6:55 PM,42.8,37.4,81,30.26,10.0,West,9.2,-,N/A,,Clear,270,2013-01-09 23:55:00
7:15 PM,44.6,37.4,76,30.26,10.0,West,6.9,-,N/A,,Clear,270,2013-01-10 00:15:00
7:35 PM,46.4,39.2,76,30.26,10.0,WSW,9.2,-,N/A,,Clear,250,2013-01-10 00:35:00
7:55 PM,46.4,37.4,71,30.26,10.0,West,8.1,-,N/A,,Clear,270,2013-01-10 00:55:00
8:15 PM,46.4,37.4,71,30.27,10.0,West,6.9,-,N/A,,Clear,270,2013-01-10 01:15:00
8:35 PM,48.2,37.4,66,30.27,10.0,West,6.9,-,N/A,,Clear,260,2013-01-10 01:35:00
8:55 PM,48.2,37.4,66,30.28,10.0,WSW,8.1,-,N/A,,Clear,250,2013-01-10 01:55:00
9:15 PM,48.2,35.6,62,30.27,10.0,West,9.2,-,N/A,,Clear,260,2013-01-10 02:15:00
9:35 PM,48.2,35.6,62,30.28,10.0,West,6.9,-,N/A,,Clear,270,2013-01-10 02:35:00
9:55 PM,46.4,35.6,66,30.28,10.0,West,8.1,-,N/A,,Clear,270,2013-01-10 02:55:00
10:15 PM,46.4,33.8,62,30.28,10.0,West,5.8,-,N/A,,Clear,260,2013-01-10 03:15:00
10:35 PM,44.6,33.8,66,30.29,10.0,West,5.8,-,N/A,,Clear,260,2013-01-10 03:35:00
10:55 PM,44.6,33.8,66,30.30,10.0,West,4.6,-,N/A,,Clear,280,2013-01-10 03:55:00
11:15 PM,44.6,32.0,61,30.31,10.0,West,5.8,-,N/A,,Clear,260,2013-01-10 04:15:00
11:35 PM,44.6,32.0,61,30.31,10.0,West,8.1,-,N/A,,Clear,270,2013-01-10 04:35:00
11:55 PM,44.6,32.0,61,30.32,10.0,West,10.4,-,N/A,,Clear,270,2013-01-10 04:55:00